Regional Weather Roundup
Issued by NWS Grand Forks, ND

Home | Current Version | Previous Version | Graphics & Text | Print | Product List | Glossary On
Versions: 1 2 3 4 5 6 7 8 9 10 11 12 13 14 15 16 17 18 19 20 21 22 23 24 25 26 27 28 29 30 31 32 33 34 35 36 37 38 39 40 41 42 43 44 45 46 47 48 49 50
000
ASUS43 KFGF 050831
RWRFGF
PRAIRIE TO PINES  WEATHER ROUNDUP
NATIONAL WEATHER SERVICE EASTERN NORTH DAKOTA/GRAND FORKS ND
200 AM CST MON DEC 05 2016

 **SATELLITE DATA USED TO AUGMENT SKY COVER AT AUTOMATED STATIONS**
 *****  WEATHER ACROSS EASTERN NORTH DAKOTA  *****

CITY           SKY/WX    TMP DP  RH WIND       PRES   REMARKS
GRAND FORKS    CLOUDY    27  24  89 W7        29.70R WCI  19
GRAND FRKS AFB CLOUDY    25  23  92 S3        29.70R
GRAND FRKS NWS   N/A     27 N/A N/A SW7         N/A  WCI  19
DEVILS LAKE    FOG       25  23  93 NE7       29.64F VSB 3/4 WCI  17
FARGO          CLEAR     22  18  85 CALM      29.71F
WAHPETON ARPT  MOSUNNY   28  27  93 E5        29.72F WCI  23
$$

 ***** WEATHER ACROSS CENTRAL AND WESTERN NORTH DAKOTA  *****

CITY           SKY/WX    TMP DP  RH WIND       PRES   REMARKS
BISMARCK       CLOUDY    18  16  92 NE9       29.60F WCI   7
MINOT          CLOUDY    14  11  87 NE6       29.55F WCI   5
JAMESTOWN      CLOUDY    20  18  92 SE5       29.63F WCI  13
MINOT AFB      CLOUDY    14  12  89 E7        29.55F WCI   4
GARRISON         N/A     21  18  88 E7        29.54F WCI  12
WILLISTON      LGT SNOW  29  27  92 CALM      29.48F VSB 1
DICKINSON      CLOUDY    26  21  81 S3        29.49S
HETTINGER      CLOUDY    20  15  81 CALM      29.52F
$$

 *****  OTHER AIRPORT OBSERVATIONS IN OUR AREA  *****

CITY           SKY/WX    TMP DP  RH WIND       PRES   REMARKS
WALHALLA         N/A     27  27 100 W3        29.67F
GRAFTON AIRPOR CLOUDY    28  28 100 W6        29.71S WCI  22
VALLEY CITY AR CLOUDY    19  19 100 E5        29.68S WCI  13
CANDO          FOG       21  21 100 SE6       29.66F VSB 1/2 WCI  14
CAVALIER APRT    N/A     28  27  93 SW3       29.68S
GWINNER          N/A     28  28 100 S7        29.68S WCI  21
SHEYENNE NWR     N/A     20  18  91 CALM      29.95S
ROLLA          FOG       18  18 100 S7        29.62R VSB 1/4 WCI   8
 ***** THE ABOVE OBSERVATIONS ARE NON NWS ARE NOT QUALITY
       CONTROLLED AND MAY MIS-REPORT RAIN FOR SNOW...
$$

  *****  WEATHER ACROSS NORTHERN MINNESOTA  *****

CITY           SKY/WX    TMP DP  RH WIND       PRES   REMARKS
FLAG ISLAND    CLOUDY    30  28  93 W7        29.62R WCI  23
WARROAD        CLOUDY    30  27  86 W6        29.66R WCI  24
ROSEAU         CLOUDY    30  27  86 W6        29.66R WCI  24
HALLOCK        CLOUDY    30  28  93 W5        29.68S
THF RVR FALLS  CLOUDY    27  25  92 W8        29.69S WCI  19
BAUDETTE       CLOUDY    30  27  88 W10       29.64R WCI  21
WASKISH        CLOUDY    30  28  93 W14G21    29.68R WCI  20
CROOKSTON      CLOUDY    28  27  93 SW3       29.72R
GREENBUSH NDAW   N/A     28  28 100 W7          N/A  WCI  21
$$
  *****  WEATHER ACROSS CENTRAL AND WEST MINNESOTA  *****

CITY           SKY/WX    TMP DP  RH WIND       PRES   REMARKS
FOSSTON        CLOUDY    27  25  93 SW7       29.71R WCI  19
BEMIDJI        CLOUDY    28  26  94 SW6       29.69R WCI  21
PARK RAPIDS    CLOUDY    31  25  78 W7        29.69R WCI  24
ELBOW LAKE     FAIR      28  27  96 CALM      29.72F
WADENA         CLEAR     21  21 100 CALM      29.72R
DETROIT LAKES  CLEAR     27  27 100 CALM      29.71S
MOORHEAD       CLEAR     25  23  93 CALM      29.72S
FERGUS FALLS   PTCLDY    27  27 100 SE5       29.76F WCI  21
MORRIS MN      PTCLDY    28  27  93 E6        29.72F WCI  22
STAPLES        CLEAR     23  23 100 S3        29.73R
$$
  *****  WEATHER ELSEWHERE ACROSS MINNESOTA  *****

CITY           SKY/WX    TMP DP  RH WIND       PRES   REMARKS
DULUTH         CLOUDY    31  29  92 W13       29.68R WCI  21
INTRNTL FALLS  CLOUDY    30  27  88 W7        29.65R WCI  23
ELY            CLOUDY    30  28  93 W7        29.65R WCI  23
CLOQUET        CLOUDY    32  28  86 W5        29.71R
WHEATON        CLOUDY   N/A N/A N/A SE8       29.74S
BRAINERD       CLEAR     29  27  92 SW10      29.74R WCI  20
HIBBING        CLOUDY    29  27  92 W5        29.68R WCI  24
ALEXANDRIA     CLEAR     27  25  92 SW8       29.74S WCI  19
SAINT CLOUD    CLEAR     28  27  96 S5        29.77R WCI  23
MINNEAPOLIS    CLEAR     31  27  85 SW5       29.81R
$$

  *****  WEATHER ACROSS SOUTH DAKOTA  *****

CITY           SKY/WX    TMP DP  RH WIND       PRES   REMARKS
SIOUX FALLS    CLOUDY    35  30  82 S6        29.72F
BROOKINGS      PTCLDY    31  29  92 SE7       29.70F WCI  24
WATERTOWN      CLOUDY    28  26  92 SE3       29.69F
HURON          PTCLDY    32  29  88 SE10      29.63F WCI  24
SISSETON         N/A     35  25  66 S5        29.69S
ABERDEEN       CLOUDY    30  26  85 SE9       29.66F WCI  22
MITCHELL       CLOUDY    34  29  82 SE12      29.65F
PIERRE         PTCLDY    28  23  81 E5        29.55F WCI  23
MOBRIDGE       CLOUDY    29  23  78 SE10      29.55F WCI  20
RAPID CITY     CLOUDY    33  20  58 E7        29.50S
$$

  *****  SOME WEATHER IN NEARBY STATES *****

CITY           SKY/WX    TMP DP  RH WIND       PRES   REMARKS
GLASGOW MT     FLURRIES  27  23  85 NW25G32   29.55R WCI  12
GREAT FALLS MT LGT SNOW  19  16  88 N10       29.78R VSB 3/4 WCI   7
CHEYENNE WY    CLOUDY    40  18  41 W17G25    29.64F
SCOTTSBLUFF NE CLOUDY    44  19  36 CALM      29.61F
OMAHA NE       CLOUDY    32  27  81 S9        29.85F WCI  24
DES MOINES IA  CLEAR     31  29  92 S8        29.91R WCI  23
DAVENPORT IA   CLOUDY    33  31  92 SW9       29.97R
CHICAGO IL     CLOUDY    33  30  88 W12       29.95S WCI  24
EAU CLAIRE WI  CLEAR     32  30  92 SW6       29.80R
LA CROSSE WI   CLOUDY    36  33  89 SW9       29.87R
$$

  *****  SOME NATIONAL WEATHER *****

CITY           SKY/WX    TMP DP  RH WIND       PRES   REMARKS
LA GUARDIA NY  LGT RAIN  43  29  57 E5        30.09R
RALEIGH NC     RAIN      43  41  93 CALM      30.03F FOG
ATLANTA GA     FOG       44  44 100 NE7       30.01R VSB 1
NEW ORLEANS LA CLOUDY    60  60 100 N8        29.91R
OKLAHOMA CITY  CLOUDY    34  33  96 CALM      30.02F FOG
ALBUQUERQUE NM CLOUDY    31  13  47 SE3       30.01F
SALT LAKE CITY CLOUDY    48  23  37 SE12      29.76S
LOS ANGELES CA PTCLDY    55  54  96 VRB3      29.99S
BOISE ID       CLEAR     28  18  66 N9        30.03R WCI  19
SEATTLE WA     MOCLDY    37  32  82 S12       30.15R
$$

*** WEATHER ACROSS MANITOBA...SASKATCHEWAN AND ONTARIO ***
                ***ONTARIO***

CITY           SKY/WX    TMP DP  RH WIND       PRES   REMARKS
GERALDTON      LGT SNOW  27  27 100 E5        29.65F WCI  21
THUNDER BAY    LGT SNOW  30  30 100 SW3       29.65R
SIOUX LOOKOUT  SNOWSHWR  27  25  93 SE3       29.61R
TORONTO        LGT SNOW  34  32  93 SE10      29.79F
BIG TROUT LK   FLURRIES  27  25  93 SE7       29.71R WCI  19
PICKLE LAKE    NOT AVBL
DRYDEN         FLURRIES  30  28  93 S5        29.59R
KENORA         LGT SNOW  28  27  93 SW5       29.59R WCI  23
$$
                *** MANITOBA***

CITY           SKY/WX    TMP DP  RH WIND       PRES   REMARKS
BRANDON        FOG       23  21  93 CALM      29.63S VSB 1/8
DAUPHIN        CLOUDY    21  19  93 W7        29.65R WCI  13
ISLAND LAKE    NOT AVBL
PILOT MOUND      N/A     23  21  93 SW3         N/A
THE PAS        CLOUDY    25  21  86 SW3       29.62R
THOMPSON       FLURRIES  25  23  93 VRB2      29.64R
WINNIPEG       CLOUDY    30  28  93 NW7       29.64S WCI  23
LYNN LAKE      CLOUDY    23  23 100 CALM      29.60R
CHURCHILL      CLOUDY    21  19  93 E6        29.79S WCI  14
GILLAM         FLURRIES  18  16  93 E2        29.72R
$$
                ***SASKATCHEWAN***

CITY           SKY/WX    TMP DP  RH WIND       PRES   REMARKS
ESTEVAN        NOT AVBL
KINDERSLEY     FLURRIES  14  10  85 NW20G29   29.72R WCI  -3
LLOYDMINSTER   LGT SNOW   9   3  78 NW21G28   29.78R WCI -11
PRINCE ALBERT  FLURRIES  23  19  86 NW13      29.62R WCI  11
REGINA         CLOUDY    16  14  93 NW5       29.57S WCI   9
YORKTON        FOG       16  14  93 CALM      29.61S VSB 3/8
N. BATTLEFORD  FLURRIES  14  10  85 NW20G26   29.74R WCI  -3
LA RONGE       FLURRIES  23  19  86 W14       29.61R WCI  11
SASKATOON      CLOUDY    23  19  86 NW12      29.66R WCI  12
SWIFT CURRENT  CLOUDY    18  16  93 NW17      29.62R WCI   2
$$
NOTE: THESE ARE AUTOMATED STATIONS WITH LIMITED QUALITY CONTROL
      "FAIR" INDICATES FEW OR NO CLOUDS BELOW 12,000 FEET WITH NO
      SIGNIFICANT WEATHER AND/OR OBSTRUCTIONS TO VISIBILITY.
      SKY/WX - SKY CONDITION AND SIGNIFICANT WEATHER.
      TMP - AIR TEMPERATURE.    DP   - DEWPOINT TEMPERATURE.
      RH  - RELATIVE HUMIDITY.  PRES - PRESSURE.
      HX  - HEAT INDEX.         WCI  - WIND CHILL INDEX.
$




USA.gov is the U.S. government's official web portal to all federal, state and local government web resources and services.